This is the latest recevied weather packets stored in our database for station/object KA8OAD-10. If no packets are shown the sender has not sent any weather packets the latest 10 day(s).
| Time | Temp. | Humidity | Pressure | Rain* | Wind** | Luminosity | Snow |
|---|---|---|---|---|---|---|---|
| 1777036353 | 15.56° C | 93% | 1008.9 hPa | 0 mm | - | 95 W/m² | - |
| 1777035752 | 15° C | 94% | 1009 hPa | 0 mm | - | 86 W/m² | - |
| 1777035451 | 15° C | 93% | 1009.1 hPa | 0 mm | - | 100 W/m² | - |
| 1777034850 | 14.44° C | 93% | 1009.1 hPa | 0 mm | - | 90 W/m² | - |
| 1777034549 | 14.44° C | 93% | 1009 hPa | 0 mm | - | 79 W/m² | - |
| 1777033952 | 14.44° C | 93% | 1009 hPa | 0 mm | - | 98 W/m² | - |
| 1777033351 | 13.33° C | 93% | 1009 hPa | 0 mm | - | 81 W/m² | - |
| 1777031552 | 11.67° C | 92% | 1009.1 hPa | 0 mm | - | 83 W/m² | - |
| 1777031252 | 11.67° C | 92% | 1009.1 hPa | 0 mm | - | 81 W/m² | - |
| 1777030951 | 11.67° C | 92% | 1009.1 hPa | 0 mm | - | 60 W/m² | - |
| 1777030349 | 11.11° C | 92% | 1009.2 hPa | 0 mm | - | 40 W/m² | - |
| 1777029151 | 11.11° C | 91% | 1009.2 hPa | 0 mm | - | 26 W/m² | - |
| 1777028550 | 11.11° C | 91% | 1009.2 hPa | 0 mm | - | 18 W/m² | - |
| 1777026751 | 11.67° C | 91% | 1009.2 hPa | 0 mm | - | 0 W/m² | - |
| 1777024050 | 12.22° C | 90% | 1009.1 hPa | 0 mm | - | 0 W/m² | - |
| 1777021353 | 12.22° C | 90% | 1009.2 hPa | 0 mm | - | 0 W/m² | - |
| 1777020752 | 12.78° C | 90% | 1009.2 hPa | 0 mm | - | 0 W/m² | - |
| 1777017751 | 13.33° C | 90% | 1009.6 hPa | 0 mm | - | 0 W/m² | - |
| 1777017451 | 13.33° C | 90% | 1009.6 hPa | 0 mm | - | 0 W/m² | - |
| 1777015651 | 13.33° C | 90% | 1009.6 hPa | 0 mm | - | 0 W/m² | - |
| 1777014153 | 13.33° C | 90% | 1009.6 hPa | 0 mm | - | 0 W/m² | - |
| 1777013551 | 13.89° C | 90% | 1009.6 hPa | 0 mm | - | 0 W/m² | - |
| 1777013251 | 13.89° C | 90% | 1009.6 hPa | 0 mm | - | 0 W/m² | - |
| 1777012353 | 13.89° C | 90% | 1009.8 hPa | 0 mm | - | 0 W/m² | - |
| 1777009953 | 14.44° C | 90% | 1009.9 hPa | 0 mm | - | 0 W/m² | - |
* Rain latest hour (hover to see other rain measurements)
** Current wind speed in m/s (hover to see current wind gust speed)